Simultaneous Nadir Overpasses (SNOs) Predictions

Prediction of SNOs between METOP-A and NOAA-19 Satellite Orbit:

Table of predicted SNOs for the next 14.0 days since TLE Epoch: 8/16/2019
Index Date (METOP-A) Time (METOP-A) Lat,Lon (METOP-A) SZA (METOP-A ) Date (NOAA-19) Time (NOAA-19) Lat,Lon (NOAA-19) SZA (NOAA-19 ) Distance(km) Time Diff (sec)
1 08/20/2019 22:24:15 -79.87, 36.36 112.27 08/20/2019 22:23:02 -79.90, 36.40 112.26 2.55 73
2 08/20/2019 23:14:55 79.88,-156.25 67.76 08/20/2019 23:14:07 79.88,-156.21 67.75 0.86 48
3 08/21/2019 00:05:36 -79.89, 11.20 112.22 08/21/2019 00:05:02 -79.88, 11.13 112.24 2.39 34
4 08/21/2019 00:56:17 79.87, 178.30 67.77 08/21/2019 00:56:08 79.89, 178.22 67.78 2.65 9
5 08/21/2019 01:46:58 -79.88, -14.24 112.21 08/21/2019 01:47:02 -79.86, -14.13 112.23 3.61 4
6 08/21/2019 02:37:39 79.86, 152.86 67.77 08/21/2019 02:38:08 79.87, 152.96 67.79 2.25 29
7 08/21/2019 03:28:20 -79.87, -39.68 112.20 08/21/2019 03:29:03 -79.86, -39.70 112.20 1.11 43
8 08/21/2019 04:19:01 79.85, 127.42 67.78 08/21/2019 04:20:09 79.87, 127.39 67.82 3.11 68




NCC Satellite Simultaneous Nadir Overpasses (SNOs) Prediction Service
